Regional Weather Roundup
Issued by NWS

Home | Current Version | Previous Version | Graphics & Text | Print | Product List | Glossary Off
Versions: 1 2 3 4 5 6 7 8 9 10 11 12 13 14 15 16 17 18 19 20 21 22 23 24 25 26 27 28

000
ASUS45 KSLC 161610
RWRUT

UTAH REGIONAL WEATHER ROUNDUP
NATIONAL WEATHER SERVICE SALT LAKE CITY UT
900 AM MST SAT DEC 16 2017

UTZ001>011-023>025-161700-

NORTHERN UTAH

CITY           SKY/WX    TMP DP  RH WIND       PRES   REMARKS
BRIGHAM CITY   CLOUDY    32  30  92 CALM      29.93R VSB 1/2
HILL AFB       LGT SNOW  29  28  92 CALM      29.89R FOG
LOGAN          LGT SNOW  32  28  85 W6        29.91R VSB 3/4 WCI  26
OGDEN          SNOW      31  30  96 CALM      29.90R VSB 1/2
SALT LAKE CITY CLOUDY    34  29  82 N5        29.89S HAZE    WCI  30
TOOELE VALLEY  CLOUDY    32  28  86 CALM      29.90S FOG
WENDOVER       CLOUDY    33  23  66 N9        29.95R WCI  25
HEBER CITY       N/A     27  18  69 CALM      29.82F
WEST JORDAN    CLOUDY    32  30  94 N5        29.89R WCI  27

$$

UTZ011>015-024>027-161700-

CENTRAL/NORTHEAST UTAH

CITY           SKY/WX    TMP DP  RH WIND       PRES   REMARKS
PROVO AIRPORT  MOSUNNY   26  24  92 S8        29.89S WCI  18
MOAB/CANYONLAN CLOUDY    26  10  50 NW16      29.87R WCI  14
DELTA          CLOUDY    23  18  80 S7        29.86S WCI  15
PRICE          CLOUDY    28  14  55 CALM      29.83F
ROOSEVELT      CLOUDY    28  18  64 SW3       29.89R
VERNAL         CLOUDY    26  17  68 CALM      29.85S

$$

UTZ013>016-019>022-027-161700-

SOUTHERN UTAH

CITY           SKY/WX    TMP DP  RH WIND       PRES   REMARKS
BRYCE CANYON   CLOUDY    23   1  38 W5        29.84S WCI  17
CEDAR CITY     CLOUDY    27   2  34 NE6       29.80R WCI  20
MILFORD        CLOUDY    31  17  56 N9        29.84S WCI  23
ST GEORGE      MOSUNNY   35  11  36 CALM      29.84R
HANKSVILLE     CLOUDY    23   9  54 CALM      29.91R
BLANDING         N/A     32   9  38 CALM      29.94F

$$

REGIONAL REPORTS     COLORADO/ARIZONA

CITY           SKY/WX    TMP DP  RH WIND       PRES   REMARKS
CRAIG, CO      CLOUDY    15  10  80 SW5       29.84F WCI   8
GRAND JUNCTION CLOUDY    28   9  44 SE7       29.85F WCI  21
RIFLE, CO      CLOUDY    20  11  68 CALM      29.88F
MONTROSE, CO   CLOUDY    27  11  51 S6        29.88F WCI  20
CORTEZ, CO     CLOUDY    26   7  44 NE6       29.88F WCI  19
COLORADO CITY    N/A     30   3  31 SE5       29.85S WCI  25
PAGE, AZ       CLOUDY    35  11  36 CALM      29.84S
GRAND CANYON   CLOUDY    25  -6  25 CALM      29.86S
KINGMAN, AZ    CLOUDY    42   4  20 SE7       29.80S
FLAGSTAFF, AZ  CLOUDY    33   5  30 NW3       29.86F

$$

REGIONAL REPORTS    NEVADA/IDAHO/WYOMING

CITY           SKY/WX    TMP DP  RH WIND       PRES   REMARKS
LAS VEGAS, NV  CLOUDY    47  17  30 CALM      29.79R
ELY, NY        LGT SNOW  32  31  96 NE7       29.87S WCI  26
ELKO, NV       FLURRIES  31  23  72 E7        29.98R WCI  24
POCATELLO, ID  LGT SNOW  25  23  92 SW12      29.98R FOG     WCI  14
BURLEY, ID     CLOUDY    29  24  82 W14G22    29.98S WCI  18
FORT BRIDGER,  CLOUDY    30  24  79 NW3       29.85F
EVANSTON, WY   NOT AVBL
ROCK SPRINGS,  CLOUDY    28  20  71 SE5       29.83S WCI  23

$$




USA.gov is the U.S. government's official web portal to all federal, state and local government web resources and services.